| time (UTC) | temp C | wind direction | speed KPH | gust KPH | rain 1hr cm | rain 24hr cm | rain mn cm | humidity % | barometer mb |
| 20260906205015 | 21 | 357 | 8.0 | 8.0 | 0.00 | 0.00 | 0.00 | 67 | 1018.7 |
| 20260906204014 | 20 | 344 | 0.0 | 16.1 | 0.00 | 0.00 | 0.00 | 68 | 1018.6 |
| 20260906203009 | 21 | 225 | 0.0 | 8.0 | 0.00 | 0.00 | 0.00 | 65 | 1018.6 |
| 20260906202007 | 21 | 350 | 3.2 | 14.5 | 0.00 | 0.00 | 0.00 | 69 | 1018.6 |
| 20260906201001 | 20 | 12 | 1.6 | 16.1 | 0.00 | 0.00 | 0.00 | 73 | 1018.5 |
| 20260906195957 | 20 | 56 | 4.8 | 9.7 | 0.00 | 0.00 | 0.00 | 73 | 1018.9 |
| 20260906194955 | 21 | 29 | 3.2 | 11.3 | 0.00 | 0.00 | 0.00 | 71 | 1018.4 |
| 20260906193952 | 21 | 101 | 3.2 | 11.3 | 0.00 | 0.00 | 0.00 | 66 | 1018.5 |
| 20260906192948 | 20 | 213 | 6.4 | 8.0 | 0.00 | 0.00 | 0.00 | 73 | 1018.6 |
| 20260906191948 | 20 | 331 | 9.7 | 16.1 | 0.00 | 0.00 | 0.00 | 73 | 1018.6 |
| 20260906190947 | 22 | 14 | 3.2 | 6.4 | 0.00 | 0.00 | 0.00 | 70 | 1018.5 |
| 20260906185947 | 21 | 24 | 4.8 | 12.9 | 0.00 | 0.00 | 0.00 | 70 | 1018.5 |
| 20260906184945 | 21 | 354 | 9.7 | 22.5 | 0.00 | 0.00 | 0.00 | 69 | 1018.5 |
| 20260906183942 | 21 | 54 | 11.3 | 12.9 | 0.00 | 0.00 | 0.00 | 70 | 1018.5 |
| 20260906182940 | 20 | 327 | 4.8 | 14.5 | 0.00 | 0.00 | 0.00 | 72 | 1018.1 |
| 20260906181937 | 20 | 16 | 6.4 | 9.7 | 0.00 | 0.00 | 0.00 | 71 | 1018.6 |
| 20260906180934 | 21 | 325 | 3.2 | 8.0 | 0.00 | 0.00 | 0.00 | 72 | 1018.6 |
| 20260906175932 | 20 | 358 | 4.8 | 12.9 | 0.00 | 0.00 | 0.00 | 75 | 1018.5 |
| 20260906174931 | 20 | 346 | 6.4 | 14.5 | 0.00 | 0.00 | 0.00 | 77 | 1018.6 |
| 20260906173927 | 21 | 326 | 12.9 | 16.1 | 0.00 | 0.00 | 0.00 | 73 | 1018.6 |
| 20260906172926 | 20 | 70 | 11.3 | 24.1 | 0.00 | 0.00 | 0.00 | 73 | 1018.8 |
| 20260906171924 | 20 | 5 | 6.4 | 20.9 | 0.00 | 0.00 | 0.00 | 79 | 1018.7 |
| 20260906170920 | 20 | 259 | 4.8 | 8.0 | 0.00 | 0.00 | 0.00 | 82 | 1018.9 |
| 20260906165919 | 18 | 308 | 0.0 | 9.7 | 0.00 | 0.00 | 0.00 | 82 | 1018.7 |
| 20260906164919 | 20 | 333 | 8.0 | 12.9 | 0.00 | 0.00 | 0.00 | 80 | 1019.1 |
| 20260906163914 | 17 | 42 | 3.2 | 9.7 | 0.00 | 0.00 | 0.00 | 86 | 1019.0 |
| 20260906162914 | 18 | 47 | 4.8 | 8.0 | 0.00 | 0.00 | 0.00 | 85 | 1019.0 |
| 20260906161914 | 19 | 102 | 11.3 | 22.5 | 0.00 | 0.00 | 0.00 | 79 | 1019.0 |
| 20260906160912 | 18 | 340 | 8.0 | 9.7 | 0.00 | 0.00 | 0.00 | 82 | 1019.1 |
| 20260906155910 | 19 | 344 | 1.6 | 17.7 | 0.00 | 0.00 | 0.00 | 80 | 1019.3 |
| 20260906154907 | 17 | 11 | 3.2 | 6.4 | 0.00 | 0.00 | 0.00 | 90 | 1019.2 |
| 20260906153906 | 17 | 336 | 8.0 | 8.0 | 0.00 | 0.00 | 0.00 | 90 | 1019.1 |
| 20260906152900 | 17 | 322 | 3.2 | 8.0 | 0.00 | 0.00 | 0.00 | 89 | 1019.3 |
| 20260906151859 | 17 | 268 | 4.8 | 6.4 | 0.00 | 0.00 | 0.00 | 91 | 1019.6 |
| 20260906150857 | 16 | 8 | 3.2 | 8.0 | 0.00 | 0.00 | 0.00 | 93 | 1019.3 |
| 20260906145851 | 16 | 0 | 3.2 | 6.4 | 0.00 | 0.00 | 0.00 | 93 | 1019.3 |
| 20260906144851 | 16 | 52 | 3.2 | 3.2 | 0.00 | 0.00 | 0.00 | 94 | 1019.2 |
| 20260906143846 | 16 | 65 | 4.8 | 6.4 | 0.00 | 0.00 | 0.00 | 94 | 1019.3 |
| 20260906142843 | 16 | 46 | 3.2 | 9.7 | 0.00 | 0.00 | 0.00 | 94 | 1019.3 |
| 20260906141838 | 16 | 22 | 3.2 | 6.4 | 0.00 | 0.00 | 0.00 | 93 | 1019.1 |
| 20260906140838 | 16 | 14 | 6.4 | 14.5 | 0.00 | 0.00 | 0.00 | 94 | 1018.9 |
| 20260906135836 | 16 | 56 | 3.2 | 6.4 | 0.00 | 0.00 | 0.00 | 95 | 1018.7 |
| 20260906134832 | 16 | 346 | 8.0 | 11.3 | 0.00 | 0.00 | 0.00 | 95 | 1018.7 |
| 20260906133828 | 15 | 323 | 9.7 | 11.3 | 0.00 | 0.00 | 0.00 | 96 | 1018.7 |
| 20260906132825 | 15 | 8 | 4.8 | 9.7 | 0.00 | 0.00 | 0.00 | 96 | 1018.5 |
| 20260906131821 | 16 | 323 | 4.8 | 9.7 | 0.00 | 0.00 | 0.00 | 96 | 1018.4 |
| 20260906130819 | 16 | 94 | 3.2 | 12.9 | 0.00 | 0.00 | 0.00 | 97 | 1018.6 |
| 20260906125817 | 15 | 290 | 4.8 | 12.9 | 0.00 | 0.00 | 0.00 | 97 | 1018.7 |
| 20260906124815 | 15 | 354 | 9.7 | 9.7 | 0.00 | 0.00 | 0.00 | 97 | 1018.6 |
| 20260906123810 | 15 | 333 | 6.4 | 8.0 | 0.00 | 0.00 | 0.00 | 98 | 1018.5 |
| 20260906122805 | 15 | 39 | 3.2 | 4.8 | 0.00 | 0.00 | 0.00 | 99 | 1018.5 |
| 20260906121803 | 14 | 21 | 4.8 | 12.9 | 0.00 | 0.00 | 0.00 | 99 | 1018.5 |
| 20260906120800 | 14 | 14 | 6.4 | 16.1 | 0.00 | 0.00 | 0.00 | 99 | 1018.6 |
| 20260906115758 | 14 | 47 | 6.4 | 11.3 | 0.00 | 0.00 | 0.00 | 99 | 1018.3 |
| 20260906114758 | 14 | 341 | 3.2 | 11.3 | 0.00 | 0.00 | 0.00 | 99 | 1017.8 |
| 20260906113754 | 14 | 22 | 3.2 | 8.0 | 0.00 | 0.00 | 0.00 | 99 | 1018.0 |
| 20260906112754 | 14 | 14 | 4.8 | 8.0 | 0.00 | 0.00 | 0.00 | 99 | 1017.7 |
| 20260906111750 | 14 | 4 | 6.4 | 19.3 | 0.00 | 0.00 | 0.00 | 99 | 1018.0 |
| 20260906110750 | 14 | 21 | 4.8 | 9.7 | 0.00 | 0.00 | 0.00 | 99 | 1017.6 |
| 20260906105745 | 14 | 11 | 4.8 | 6.4 | 0.00 | 0.00 | 0.00 | 99 | 1017.5 |
| 20260906104742 | 14 | 72 | 3.2 | 4.8 | 0.00 | 0.00 | 0.00 | 99 | 1017.5 |
| 20260906103739 | 14 | 339 | 3.2 | 8.0 | 0.00 | 0.00 | 0.00 | 99 | 1017.5 |
| 20260906102735 | 14 | 324 | 3.2 | 14.5 | 0.00 | 0.00 | 0.00 | 99 | 1017.3 |
| 20260906101735 | 14 | 19 | 3.2 | 8.0 | 0.00 | 0.00 | 0.00 | 99 | 1017.1 |
| 20260906100731 | 13 | 135 | 0.0 | 3.2 | 0.00 | 0.00 | 0.00 | 99 | 1017.1 |
| 20260906095726 | 13 | 230 | 0.0 | 4.8 | 0.00 | 0.00 | 0.00 | 99 | 1017.2 |
| 20260906094726 | 14 | 10 | 3.2 | 4.8 | 0.00 | 0.00 | 0.00 | 99 | 1017.0 |
| 20260906093724 | 14 | 53 | 1.6 | 9.7 | 0.00 | 0.00 | 0.00 | 99 | 1016.9 |
| 20260906092721 | 14 | 3 | 4.8 | 8.0 | 0.00 | 0.00 | 0.00 | 99 | 1016.8 |
| 20260906091716 | 14 | 71 | 1.6 | 3.2 | 0.00 | 0.00 | 0.00 | 99 | 1016.5 |
| 20260906090714 | 13 | 249 | 3.2 | 3.2 | 0.00 | 0.00 | 0.00 | 99 | 1016.4 |
| 20260906085712 | 14 | 280 | 1.6 | 3.2 | 0.00 | 0.00 | 0.00 | 99 | 1016.5 |
| 20260906084712 | 13 | 325 | 1.6 | 4.8 | 0.00 | 0.00 | 0.00 | 99 | 1016.7 |
| 20260906083707 | 13 | 283 | 0.0 | 3.2 | 0.00 | 0.00 | 0.00 | 99 | 1016.6 |
| 20260906082703 | 14 | 9 | 3.2 | 6.4 | 0.00 | 0.00 | 0.00 | 99 | 1016.3 |
| 20260906081701 | 14 | 329 | 0.0 | 4.8 | 0.00 | 0.00 | 0.00 | 99 | 1016.4 |
| 20260906080658 | 14 | 52 | 0.0 | 4.8 | 0.00 | 0.00 | 0.00 | 99 | 1016.3 |
| 20260906075653 | 14 | 32 | 3.2 | 9.7 | 0.00 | 0.00 | 0.00 | 99 | 1016.5 |
| 20260906074649 | 15 | 46 | 3.2 | 8.0 | 0.00 | 0.00 | 0.00 | 99 | 1016.3 |
| 20260906073649 | 15 | 26 | 3.2 | 6.4 | 0.00 | 0.00 | 0.00 | 99 | 1016.5 |
| 20260906072646 | 15 | 25 | 3.2 | 6.4 | 0.00 | 0.00 | 0.00 | 99 | 1016.4 |
| 20260906071643 | 15 | 39 | 1.6 | 6.4 | 0.00 | 0.00 | 0.00 | 99 | 1016.4 |
| 20260906070640 | 15 | 347 | 4.8 | 6.4 | 0.00 | 0.00 | 0.00 | 99 | 1016.0 |
| 20260906065635 | 15 | 357 | 4.8 | 4.8 | 0.00 | 0.00 | 0.00 | 99 | 1016.4 |
| 20260906064631 | 15 | 250 | 0.0 | 4.8 | 0.00 | 0.00 | 0.00 | 99 | 1016.3 |
| 20260906063627 | 15 | 1 | 3.2 | 3.2 | 0.00 | 0.00 | 0.00 | 99 | 1016.3 |
| 20260906062625 | 15 | 345 | 3.2 | 4.8 | 0.00 | 0.00 | 0.00 | 99 | 1016.3 |
| 20260906061625 | 15 | 22 | 3.2 | 6.4 | 0.00 | 0.00 | 0.00 | 99 | 1016.5 |
| 20260906060621 | 15 | 312 | 3.2 | 6.4 | 0.00 | 0.00 | 0.00 | 99 | 1016.5 |
| 20260906055620 | 15 | 359 | 4.8 | 6.4 | 0.00 | 0.00 | 0.00 | 99 | 1016.4 |
| 20260906054616 | 15 | 8 | 4.8 | 6.4 | 0.00 | 0.00 | 0.00 | 99 | 1016.7 |
| 20260906053613 | 15 | 306 | 3.2 | 4.8 | 0.00 | 0.00 | 0.00 | 99 | 1016.5 |
| 20260906052609 | 15 | 359 | 6.4 | 8.0 | 0.00 | 0.00 | 0.00 | 99 | 1016.3 |
| 20260906051607 | 15 | 7 | 3.2 | 6.4 | 0.00 | 0.00 | 0.00 | 99 | 1016.6 |
| 20260906050604 | 15 | 35 | 3.2 | 4.8 | 0.00 | 0.00 | 0.00 | 99 | 1016.7 |
| 20260906045603 | 15 | 22 | 3.2 | 6.4 | 0.00 | 0.00 | 0.00 | 99 | 1016.6 |
| 20260906044600 | 15 | 2 | 3.2 | 4.8 | 0.00 | 0.00 | 0.00 | 99 | 1016.5 |
| 20260906043556 | 15 | 63 | 0.0 | 3.2 | 0.00 | 0.00 | 0.00 | 99 | 1016.6 |
| 20260906042556 | 15 | 30 | 3.2 | 6.4 | 0.00 | 0.00 | 0.00 | 99 | 1016.6 |
| 20260906041554 | 15 | 18 | 6.4 | 8.0 | 0.00 | 0.00 | 0.00 | 99 | 1016.8 |
| 20260906040549 | 15 | 33 | 3.2 | 4.8 | 0.00 | 0.00 | 0.00 | 99 | 1016.4 |
| 20260906035546 | 15 | 11 | 3.2 | 4.8 | 0.00 | 0.00 | 0.00 | 99 | 1016.6 |
| 20260906034541 | 15 | 63 | 0.0 | 3.2 | 0.00 | 0.00 | 0.00 | 98 | 1016.6 |
| 20260906033538 | 15 | 78 | 3.2 | 6.4 | 0.00 | 0.00 | 0.00 | 97 | 1016.8 |
| 20260906032535 | 15 | 18 | 6.4 | 9.7 | 0.00 | 0.00 | 0.00 | 96 | 1016.3 |
| 20260906031531 | 16 | 349 | 4.8 | 8.0 | 0.00 | 0.00 | 0.00 | 95 | 1016.3 |
| 20260906030526 | 15 | 28 | 3.2 | 4.8 | 0.00 | 0.00 | 0.00 | 96 | 1016.4 |
| 20260906025525 | 15 | 4 | 3.2 | 3.2 | 0.00 | 0.00 | 0.00 | 96 | 1016.5 |
| 20260906024525 | 15 | 277 | 0.0 | 3.2 | 0.00 | 0.00 | 0.00 | 96 | 1016.4 |
| 20260906023521 | 15 | 50 | 3.2 | 4.8 | 0.00 | 0.00 | 0.00 | 94 | 1016.1 |
| 20260906022517 | 15 | 68 | 1.6 | 3.2 | 0.00 | 0.00 | 0.00 | 95 | 1016.5 |
| 20260906021514 | 15 | 157 | 0.0 | 3.2 | 0.00 | 0.00 | 0.00 | 96 | 1016.3 |
| 20260906020513 | 15 | 123 | 0.0 | 1.6 | 0.00 | 0.00 | 0.00 | 97 | 1016.1 |
| 20260906015512 | 15 | 136 | 3.2 | 3.2 | 0.00 | 0.00 | 0.00 | 94 | 1016.0 |
| 20260906014507 | 15 | 188 | 0.0 | 3.2 | 0.00 | 0.00 | 0.00 | 94 | 1016.1 |
| 20260906013503 | 16 | 269 | 3.2 | 3.2 | 0.00 | 0.00 | 0.00 | 92 | 1016.0 |
| 20260906012500 | 16 | 326 | 0.0 | 4.8 | 0.00 | 0.00 | 0.00 | 91 | 1015.9 |
| 20260906011455 | 16 | 14 | 3.2 | 4.8 | 0.00 | 0.00 | 0.00 | 90 | 1016.3 |
| 20260906010451 | 17 | 335 | 6.4 | 8.0 | 0.00 | 0.00 | 0.00 | 90 | 1015.9 |
| 20260906005447 | 17 | 10 | 4.8 | 12.9 | 0.00 | 0.00 | 0.00 | 89 | 1015.8 |
| 20260906004445 | 17 | 9 | 4.8 | 8.0 | 0.00 | 0.00 | 0.00 | 89 | 1015.8 |
| 20260906003441 | 16 | 339 | 3.2 | 6.4 | 0.00 | 0.00 | 0.00 | 90 | 1015.6 |
| 20260906002436 | 17 | 244 | 1.6 | 6.4 | 0.00 | 0.00 | 0.00 | 89 | 1015.3 |
| 20260906001433 | 17 | 349 | 4.8 | 9.7 | 0.00 | 0.00 | 0.00 | 88 | 1015.5 |
| 20260906000429 | 17 | 341 | 6.4 | 8.0 | 0.00 | 0.00 | 0.00 | 88 | 1015.5 |
| 20260905235424 | 17 | 347 | 0.0 | 8.0 | 0.00 | 0.00 | 0.00 | 87 | 1015.2 |
| 20260905234420 | 17 | 351 | 3.2 | 4.8 | 0.00 | 0.00 | 0.00 | 86 | 1015.2 |
| 20260905233416 | 18 | 356 | 4.8 | 6.4 | 0.00 | 0.00 | 0.00 | 85 | 1015.2 |
| 20260905232411 | 18 | 359 | 0.0 | 6.4 | 0.00 | 0.00 | 0.00 | 83 | 1015.3 |
| 20260905231408 | 18 | 358 | 0.0 | 8.0 | 0.00 | 0.00 | 0.00 | 82 | 1015.1 |
| 20260905230408 | 18 | 31 | 3.2 | 4.8 | 0.00 | 0.00 | 0.00 | 82 | 1015.3 |
| 20260905225408 | 19 | 34 | 4.8 | 4.8 | 0.00 | 0.00 | 0.00 | 81 | 1015.2 |
| 20260905224405 | 20 | 356 | 3.2 | 9.7 | 0.00 | 0.00 | 0.00 | 79 | 1015.2 |
| 20260905223403 | 20 | 8 | 3.2 | 6.4 | 0.00 | 0.00 | 0.00 | 78 | 1015.0 |
| 20260905222402 | 20 | 359 | 9.7 | 9.7 | 0.00 | 0.00 | 0.00 | 78 | 1014.9 |
| 20260905221400 | 20 | 67 | 1.6 | 9.7 | 0.00 | 0.00 | 0.00 | 78 | 1014.9 |
| 20260905220358 | 19 | 329 | 1.6 | 9.7 | 0.00 | 0.00 | 0.00 | 79 | 1014.9 |
| 20260905215353 | 20 | 52 | 3.2 | 6.4 | 0.00 | 0.00 | 0.00 | 77 | 1014.9 |
| 20260905214350 | 20 | 9 | 3.2 | 8.0 | 0.00 | 0.00 | 0.00 | 77 | 1014.9 |
| 20260905213347 | 20 | 18 | 6.4 | 9.7 | 0.00 | 0.00 | 0.00 | 76 | 1014.7 |
| 20260905212347 | 20 | 337 | 6.4 | 11.3 | 0.00 | 0.00 | 0.00 | 75 | 1014.7 |
| 20260905211343 | 21 | 339 | 12.9 | 14.5 | 0.00 | 0.00 | 0.00 | 72 | 1014.6 |
| 20260905210339 | 20 | 49 | 3.2 | 6.4 | 0.00 | 0.00 | 0.00 | 75 | 1014.5 |